{"data":{"norad_id":59211,"intl_designator":"2024-046L","name":"STARLINK-31496","alt_names":[],"object_type":"PAYLOAD","status":"ACTIVE","operator":null,"country":"US","launch_date":"2024-03-11","launch_site_code":"AFWTR","launch_vehicle":null,"mission":null,"orbit_class":"UNKNOWN","rcs_meters":null,"size_class":null,"mass_kg":null,"dimensions":null,"purposes":["comms"],"wikipedia_slug":null,"has_3d_model":false,"image_url":null,"decayed_at":null,"tle_current":{"epoch":"2026-09-20T11:13:07.400064Z","epoch_age_seconds":161620,"freshness":"FRESH","line1":"1 59211U 24046L   26263.46744676 -.00000213  00000+0  48301-5 0  9994","line2":"2 59211  53.1617 315.5180 0000992  77.2432 282.8682 15.34388393143079","mean_motion":15.34388393,"eccentricity":9.92e-5,"inclination_deg":53.1617,"raan_deg":315.518,"arg_perigee_deg":77.2432,"mean_anomaly_deg":282.8682,"bstar":4.8301e-6,"rev_number":14307,"period_min":93.848467999979,"perigee_km":462.05912410055,"apogee_km":463.41635364874,"semimajor_km":6840.8747388746,"source":"CELESTRAK","updated_at":"2026-09-21T09:00:34.070287Z"}}}